Hondo, TX

7:22 AM CST on December 15, 2019 (GMT -0600)
Hondo Municipal

Weather History for KHDO - October, 2019

Change the Weather History Date:

Wednesday, October 30, 2019

  Actual Average Record
Temperature  
Mean Temperature 52 °F -  
Max Temperature 60 °F 75 °F 88 °F (2004)
Min Temperature 41 °F 53 °F 36 °F (2017)
Degree Days  
Heating Degree Days 14    
Growing Degree Days 2 (Base 50)    
Moisture  
Dew Point 48 °F    
Average Humidity 88    
Maximum Humidity 97    
Minimum Humidity 71    
Precipitation  
Precipitation 0.15 in - - ()
Sea Level Pressure  
Sea Level Pressure 30.00 in    
Wind  
Wind Speed 12 mph (NNE)    
Max Wind Speed 20 mph    
Max Gust Speed 29 mph    
Visibility 7 miles    
Events Rain    
Averages and records for this station are not official NWS values.
T = Trace of Precipitation, MM = Missing Value Source: NWS Daily Summary

Daily Weather History Graph

Daily Weather History Graph

Search for Another Location

Airport or City:

Astronomy

Oct. 30, 2019 Rise Set
Actual Time 7:48 AM CDT 6:52 PM CDT
Civil Twilight 7:23 AM CDT 7:16 PM CDT
Nautical Twilight 6:55 AM CDT 7:44 PM CDT
Astronomical Twilight 6:27 AM CDT 8:12 PM CDT
Moon 10:23 AM CDT (10/30) 9:11 PM CDT (10/30)
Length of Visible Light 11h 52m
Length of Day
11h 04m
Waxing Crescent, 9% of the Moon is Illuminated
Oct 30
Waxing Crescent
Nov 4
First Quarter
Nov 12
Full
Nov 19
Last Quarter
Nov 26
New

Hourly Weather History & Observations

Time (CDT) Temp. Windchill Dew Point Humidity Pressure Visibility Wind Dir Wind Speed Gust Speed Precip Events Conditions
12:13 AM 59.0 °F - 57.9 °F 96% 29.91 in 2.0 mi NNE 9.2 mph - N/A   Overcast
12:33 AM 59.0 °F - 57.9 °F 96% 29.91 in 2.0 mi NNE 9.2 mph - N/A   Overcast
12:41 AM 59.0 °F - 57.9 °F 96% 29.91 in 2.5 mi NE 9.2 mph - N/A   Overcast
12:51 AM 59.0 °F - 57.9 °F 96% 29.88 in 2.0 mi NE 6.9 mph - N/A   Overcast
1:23 AM 60.1 °F - 59.0 °F 96% 29.91 in 2.5 mi NE 6.9 mph - 0.00 in Rain Light Rain
1:34 AM 60.1 °F - 59.0 °F 96% 29.90 in 3.0 mi ENE 8.1 mph - 0.01 in Rain Light Rain
1:51 AM 60.1 °F - 57.9 °F 93% 29.87 in 4.0 mi ENE 10.4 mph - 0.02 in Rain Light Rain
2:51 AM 57.9 °F - 57.0 °F 97% 29.88 in 4.0 mi NE 11.5 mph - 0.00 in Rain Light Rain
3:46 AM 57.2 °F - 55.4 °F 94% 29.90 in 2.5 mi NNE 9.2 mph - 0.01 in   Overcast
3:51 AM 57.0 °F - 55.9 °F 96% 29.88 in 2.5 mi NE 9.2 mph - 0.01 in   Overcast
4:16 AM 57.0 °F - 55.0 °F 93% 29.90 in 3.0 mi NE 8.1 mph - N/A   Overcast
4:51 AM 57.0 °F - 55.9 °F 96% 29.87 in 3.0 mi NE 10.4 mph - N/A   Overcast
5:51 AM 57.0 °F - 55.0 °F 93% 29.88 in 3.0 mi NE 12.7 mph - N/A   Overcast
6:51 AM 55.9 °F - 54.0 °F 93% 29.88 in 5.0 mi NE 8.1 mph - N/A   Overcast
7:51 AM 55.0 °F - 54.0 °F 96% 29.91 in 8.0 mi NNE 9.2 mph - N/A   Overcast
8:24 AM 54.0 °F - - N/A% 29.94 in 6.0 mi NNE 11.5 mph - N/A   Haze
8:48 AM 51.8 °F - - N/A% 29.95 in 6.0 mi NNE 13.8 mph - N/A   Haze
8:51 AM 52.0 °F - - N/A% 29.93 in 6.0 mi NNE 11.5 mph - N/A   Haze
9:23 AM 52.0 °F - - N/A% 29.97 in 10.0 mi NE 12.7 mph - N/A   Overcast
9:37 AM 51.1 °F - - N/A% 29.97 in 10.0 mi NNE 16.1 mph - N/A   Overcast
9:51 AM 51.1 °F - - N/A% 29.96 in 10.0 mi NNE 12.7 mph - N/A   Overcast
10:51 AM 48.9 °F - - N/A% 29.98 in 10.0 mi NNE 11.5 mph - N/A   Overcast
11:51 AM 46.9 °F - 44.1 °F 90% 30.01 in 3.0 mi North 18.4 mph 25.3 mph 0.04 in Rain Heavy Rain
12:23 PM 46.9 °F - - N/A% 30.03 in 10.0 mi North 17.3 mph - 0.00 in Rain Light Rain
12:51 PM 48.0 °F - - N/A% 30.01 in 10.0 mi North 12.7 mph - 0.02 in Rain Light Rain
12:59 PM 48.0 °F - - N/A% 30.03 in 10.0 mi North 15.0 mph - 0.00 in   Overcast
1:14 PM 46.9 °F - 44.1 °F 90% 30.03 in 10.0 mi North 17.3 mph - 0.00 in Rain Light Rain
1:31 PM 48.0 °F - 44.1 °F 86% 30.03 in 10.0 mi North 15.0 mph - 0.00 in   Overcast
1:51 PM 46.9 °F - 44.1 °F 90% 30.01 in 10.0 mi North 16.1 mph - 0.00 in   Overcast
2:38 PM 48.0 °F - 44.1 °F 86% 30.02 in 10.0 mi North 16.1 mph - 0.00 in   Overcast
2:51 PM 48.0 °F - 44.1 °F 86% 30.00 in 10.0 mi North 16.1 mph - 0.00 in   Overcast
2:58 PM 48.0 °F - 45.0 °F 89% 30.02 in 10.0 mi North 19.6 mph 24.2 mph N/A   Overcast
3:41 PM 48.0 °F - 44.1 °F 86% 30.03 in 10.0 mi North 12.7 mph - 0.00 in   Overcast
3:51 PM 48.0 °F - 43.0 °F 83% 30.02 in 10.0 mi North 19.6 mph 26.5 mph 0.00 in   Overcast
4:51 PM 48.9 °F - 43.0 °F 80% 30.04 in 10.0 mi North 18.4 mph 25.3 mph N/A   Overcast
5:42 PM 46.9 °F - 42.1 °F 83% 30.08 in 5.0 mi North 18.4 mph 24.2 mph 0.02 in Rain Heavy Rain
5:51 PM 46.9 °F - 42.1 °F 83% 30.08 in 5.0 mi North 17.3 mph 28.8 mph 0.04 in Rain Rain
6:06 PM 46.9 °F - 41.0 °F 80% 30.10 in 8.0 mi North 18.4 mph - 0.02 in Rain Rain
6:51 PM 46.9 °F - 41.0 °F 80% 30.12 in 10.0 mi North 19.6 mph 25.3 mph 0.02 in   Overcast
7:51 PM 46.9 °F - 39.0 °F 74% 30.17 in 10.0 mi North 17.3 mph 28.8 mph 0.00 in   Overcast
8:51 PM 46.0 °F 39.3 °F 37.9 °F 73% 30.21 in 10.0 mi North 16.1 mph 24.2 mph N/A   Overcast
9:51 PM 44.1 °F 37.4 °F 35.1 °F 71% 30.25 in 10.0 mi North 13.8 mph - N/A   Partly Cloudy
10:51 PM 43.0 °F 37.7 °F 34.0 °F 71% 30.27 in 10.0 mi North 9.2 mph - N/A   Partly Cloudy
11:51 PM 41.0 °F 35.2 °F 33.1 °F 73% 30.30 in 10.0 mi North 9.2 mph - N/A   Clear